Location: Rioux
(40.7500°S, 175.7500°E)
Time: 11:23:14
(UTC+00:00)

Cosmos 1624 Rocket - Pass Details

Date: 12 June 2024
Orbit: 754 x 782 km, 74.0° (Epoch: 20 July)

Event Time Altitude Azimuth Distance (km) Brightness Sun altitude
Exits shadow 17:37:45 50° 275° (W) 992 4.1 -22.1°
Maximum altitude 17:37:57 50° 283° (WNW) 987 4.2 -22.1°
Drops below altitude 10° 17:43:00 10° 358° (N) 2,307 6.6 -21.1°
Sets 17:45:24 0° 3° (N) 3,220 7.4 -20.7°
